Theta_e
311 310 310 311 311 310 310 312 314 315 316 317 317 317 318 318 318 318 317 317 316 315 313 311 309 307 307 307 305 304 305 306 306 305 305 303 302 301 300 299 297 296
311 310 309 310 310 310 310 312 313 314 314 315 314 315 317 317 317 317 316 316 315 313 310 308 306 306 305 305 304 304 304 304 304 304 303 302 301 300 299 298 297 296
309 310 309 309 309 310 311 311 312 312 312 312 309 310 313 315 315 315 314 314 313 312 311 308 306 305 304 302 302 302 302 302 302 302 302 300 300 299 298 298 297 295
307 308 309 309 309 310 311 311 311 310 310 310 308 307 310 312 313 313 312 311 309 309 309 308 306 304 301 299 299 300 300 300 301 301 300 299 298 298 297 297 296 294
305 306 307 308 308 309 309 309 310 310 309 309 308 308 309 310 311 311 310 308 306 306 306 306 305 301 298 296 297 298 298 298 299 299 298 298 297 297 296 296 294 291
305 305 306 307 308 308 308 309 310 310 310 309 308 308 308 308 309 310 309 307 305 303 303 303 301 297 295 296 296 297 297 297 297 297 297 297 296 295 294 292 290 288
304 305 305 306 307 309 309 310 310 309 309 309 308 306 305 305 307 307 306 304 302 299 299 299 298 295 294 296 296 296 296 296 296 296 296 296 294 292 290 289 288 287
304 304 304 304 305 306 306 307 309 308 307 307 305 304 304 304 305 305 303 301 298 295 294 294 294 293 293 294 295 295 296 296 296 295 294 292 291 289 287 287 287 287
303 303 303 303 303 303 302 303 307 307 306 305 304 303 303 303 303 303 302 298 295 292 291 291 292 292 292 292 294 295 295 295 294 293 291 289 288 287 287 287 286 286
302 302 302 302 301 301 300 301 304 305 304 303 302 301 301 302 302 301 299 297 293 290 290 290 290 291 290 290 291 292 293 292 290 289 288 288 288 287 287 287 286 286
301 301 301 301 300 300 300 301 302 302 301 301 300 300 301 302 301 299 298 296 294 291 290 289 290 290 289 289 289 290 290 289 288 288 288 287 287 287 287 287 286 286
301 301 301 301 300 299 300 301 300 300 300 300 300 300 300 300 299 298 297 297 296 294 292 290 289 289 288 288 289 288 288 288 288 288 288 287 287 287 287 287 287 286
300 300 300 300 300 299 300 300 299 298 299 299 299 298 298 298 298 298 297 296 295 293 291 290 289 288 288 288 288 288 288 288 288 287 287 287 287 287 286 286 286 286
299 299 299 299 299 299 299 298 298 297 297 298 298 296 297 299 299 298 297 295 293 291 290 289 288 288 288 288 287 288 287 287 287 287 287 287 287 286 286 286 286 285
299 298 298 298 298 297 297 297 297 297 296 297 297 296 296 297 296 295 294 292 290 289 288 288 288 287 287 287 287 287 287 287 287 287 287 287 286 286 285 285 285 285
299 297 297 297 297 297 296 297 296 295 295 295 295 295 295 294 292 292 292 290 288 287 287 287 287 287 287 288 288 288 287 287 287 287 287 287 286 286 285 285 284 284
298 297 297 297 297 296 296 296 295 294 294 293 293 293 293 291 291 291 290 289 287 286 286 286 286 287 287 287 287 287 287 287 287 287 286 286 286 286 285 285 284 284
297 296 296 296 296 296 296 295 294 293 292 292 291 291 291 290 290 289 289 287 286 285 285 286 286 286 287 286 287 287 287 287 287 286 286 286 286 286 285 285 284 284
297 296 295 295 295 295 295 294 293 292 291 291 291 291 290 289 288 288 287 285 285 285 285 285 285 285 286 286 286 286 286 286 286 286 286 286 286 285 285 284 284 285
296 295 294 294 294 294 293 292 291 291 290 290 290 289 288 287 287 287 286 285 285 284 285 285 285 285 285 285 285 286 286 286 286 286 286 286 286 285 285 284 284 285
295 294 294 293 293 293 292 291 291 290 290 289 289 289 288 287 287 286 285 285 284 284 285 285 285 285 284 285 285 285 285 285 285 285 285 285 285 285 285 284 284 286
294 294 293 293 292 292 291 290 290 289 289 288 288 287 287 287 286 286 285 285 284 284 284 284 285 284 284 284 284 284 284 284 284 284 284 284 284 284 284 284 284 286
294 293 292 292 291 290 290 289 289 288 288 287 287 286 286 286 285 285 285 285 284 284 284 284 284 284 283 283 283 283 283 283 283 283 284 284 284 284 284 284 285 287
293 293 292 291 290 290 289 288 288 287 287 287 286 286 285 285 285 284 284 284 284 284 284 284 283 283 283 283 283 282 283 283 283 283 283 283 283 283 284 285 286 288
293 292 292 291 290 289 289 288 287 287 287 286 286 286 285 285 284 284 284 284 284 284 284 283 283 283 282 282 282 282 282 282 282 282 282 282 283 283 284 285 286 287
292 292 291 291 290 289 288 288 287 287 286 286 285 285 285 285 284 284 284 283 283 283 283 283 283 283 282 282 283 283 283 282 282 282 282 283 283 284 284 285 286 287
Wind_Speed
29 25 26 29 29 28 27 29 29 29 30 31 32 33 34 34 35 35 33 33 33 34 35 35 34 33 32 31 30 29 31 33 33 33 32 31 29 26 24 23 21 19
33 29 27 28 30 28 27 27 28 28 30 32 33 33 34 34 35 36 36 35 34 34 34 34 34 33 31 31 30 29 30 31 32 32 32 30 29 27 24 23 22 19
33 33 32 31 31 31 31 30 29 29 30 31 31 32 33 34 34 35 36 36 34 33 33 33 33 32 30 31 30 29 29 30 31 31 30 28 27 26 23 21 20 19
31 33 34 33 33 33 33 31 30 30 30 30 30 31 32 33 33 34 34 34 33 33 33 33 33 31 30 31 30 29 28 28 30 30 28 26 25 24 22 20 19 19
29 32 33 33 33 32 32 30 29 29 29 29 30 31 31 32 33 32 32 33 33 33 33 32 31 29 29 30 28 28 29 28 28 28 27 25 24 22 21 19 19 18
27 31 32 33 33 32 30 29 29 28 28 29 29 30 31 31 32 31 31 33 33 33 32 31 29 29 29 28 27 27 28 27 26 26 25 24 23 21 20 20 20 19
28 30 31 32 33 33 32 31 30 29 28 29 28 28 30 31 31 30 30 32 32 31 30 29 29 29 29 27 26 26 26 26 26 25 25 24 23 21 21 21 20 19
29 31 31 31 31 31 31 31 31 30 29 29 28 28 29 30 30 30 30 31 31 30 30 29 29 29 29 27 26 27 27 27 26 25 25 24 23 23 23 22 21 19
28 31 30 30 29 28 28 29 31 31 30 30 29 28 29 29 29 29 29 30 30 30 29 29 29 29 29 28 28 28 28 27 26 26 26 25 25 25 24 22 21 19
27 30 30 29 28 28 28 29 30 30 30 30 30 29 29 29 28 28 29 30 30 29 27 28 29 30 30 29 29 29 28 27 27 26 26 26 25 25 23 22 20 18
27 29 30 29 28 28 28 29 29 30 29 30 30 29 29 28 28 28 29 31 31 30 29 28 30 31 31 30 30 29 28 28 28 27 27 26 25 24 23 21 19 17
28 29 30 30 29 29 30 30 29 29 29 29 30 30 29 28 28 28 30 31 32 32 32 31 31 31 32 31 30 30 30 29 29 28 27 26 25 23 22 20 17 15
28 29 30 31 31 30 30 30 30 29 29 29 30 30 29 29 28 29 30 31 31 32 32 32 32 33 32 32 32 31 31 30 29 28 27 26 24 22 20 18 16 16
26 26 28 31 31 30 30 31 31 30 29 28 29 29 30 30 29 29 30 31 31 31 31 32 33 34 34 34 33 32 31 30 30 29 28 26 23 21 20 18 17 17
24 25 26 28 29 29 29 30 31 31 29 29 29 30 30 29 29 29 29 30 30 30 30 32 34 35 35 34 33 32 32 31 30 30 28 26 25 23 21 21 20 19
24 25 26 28 29 29 29 29 29 30 29 29 29 29 28 28 28 28 28 28 29 30 30 31 33 34 35 34 33 33 33 32 31 30 28 27 26 25 24 22 21 20
23 25 26 28 30 30 29 28 28 28 28 29 28 27 27 26 26 27 28 28 29 30 30 31 33 34 35 35 35 34 33 32 31 30 28 27 26 25 25 23 22 21
23 24 25 27 29 30 29 28 27 27 28 28 27 26 26 25 25 26 27 28 28 28 29 31 32 33 34 34 34 33 32 31 31 29 28 27 25 24 24 23 23 22
22 22 24 26 28 29 28 27 27 27 27 26 25 25 24 24 25 25 25 26 27 27 28 29 30 31 32 32 33 33 32 30 30 29 28 27 26 24 23 23 23 23
22 22 22 24 25 27 27 27 26 26 25 25 24 24 24 24 25 25 25 26 27 28 28 28 29 30 31 32 32 32 32 30 29 28 28 27 25 24 23 23 23 22
22 22 22 22 24 25 26 27 26 25 24 24 24 24 24 25 25 25 26 26 26 27 27 28 29 30 31 31 32 31 30 29 28 28 26 25 23 22 22 22 22 20
22 22 22 22 24 25 26 26 25 24 24 24 23 23 23 24 24 24 25 26 26 27 26 27 28 29 29 30 29 29 28 27 26 25 24 23 22 22 21 21 19 17
21 22 22 22 23 24 25 25 25 24 23 23 23 22 22 22 22 23 23 24 25 26 26 26 27 28 28 28 27 26 26 26 25 24 24 24 23 21 20 18 16 16
21 22 22 22 23 24 24 24 23 23 22 22 21 21 21 21 21 21 21 21 23 24 25 25 26 26 25 25 25 24 23 23 23 23 23 22 21 19 18 16 16 17
20 21 22 22 22 23 23 23 22 22 21 20 20 20 20 20 20 19 19 19 20 22 22 23 24 24 23 23 22 22 21 21 21 21 21 20 19 18 17 16 17 18
18 20 21 22 22 22 22 21 21 21 20 19 19 19 19 19 18 18 18 18 18 19 19 20 22 22 22 22 22 21 21 20 19 20 20 19 18 17 16 17 18 19
Wind_Direction
216 216 218 218 216 216 217 219 220 222 224 225 226 226 222 218 216 217 219 222 222 220 217 215 213 209 208 209 208 207 210 210 209 210 209 208 208 209 209 208 206 205
220 217 217 217 218 218 219 223 227 230 231 230 228 226 222 218 219 221 221 223 223 220 217 215 211 210 211 212 211 208 210 210 209 211 210 209 210 212 214 214 212 212
221 220 220 219 220 222 225 230 233 233 233 230 226 221 219 219 222 224 224 222 220 219 218 216 214 215 215 215 213 209 210 210 209 210 210 209 212 214 216 217 215 215
220 221 223 224 225 227 230 232 233 232 231 229 224 220 220 222 224 225 224 221 218 216 216 217 217 218 217 215 213 209 209 210 210 209 209 209 212 214 216 217 215 212
220 222 224 227 229 230 231 232 233 233 232 230 226 224 225 225 225 226 223 219 217 215 216 217 217 217 216 214 210 208 208 209 209 209 208 208 211 213 214 213 208 203
218 221 225 228 230 231 231 232 233 234 234 231 228 230 231 228 226 227 224 219 216 216 216 216 215 215 214 211 207 207 208 207 207 207 207 208 209 209 207 204 198 195
217 220 223 226 229 231 230 231 234 234 233 232 232 233 232 229 227 227 224 219 215 215 216 215 214 214 213 210 205 204 205 206 207 206 206 206 205 200 196 194 192 190
219 220 221 223 225 226 226 227 231 233 232 232 234 234 232 229 227 226 223 219 215 214 215 214 213 213 212 208 204 205 206 206 206 204 202 200 197 193 190 188 188 188
219 220 221 224 224 223 223 224 228 231 232 233 233 233 231 229 227 225 222 217 213 212 212 212 212 212 210 207 206 208 207 205 202 201 199 196 192 190 188 186 186 186
220 222 222 223 224 223 223 225 228 230 231 231 231 230 229 228 227 225 221 216 211 209 210 210 210 210 208 206 207 208 206 201 198 197 196 195 192 191 189 188 188 187
222 223 222 222 223 223 224 226 228 229 230 230 228 228 228 228 227 223 220 217 213 211 212 211 211 210 207 205 204 204 203 200 197 196 194 193 193 193 191 189 188 187
223 223 222 220 221 223 225 226 226 228 230 229 228 228 227 226 226 223 220 218 216 214 215 214 213 210 206 204 203 202 201 200 198 195 193 192 193 193 192 189 186 185
221 222 222 220 219 222 225 225 224 225 227 229 228 226 225 225 226 224 220 217 215 214 214 213 212 210 207 205 204 202 199 197 195 193 192 192 192 191 189 186 183 185
218 219 221 221 220 221 223 223 222 223 225 228 228 226 227 229 229 225 221 217 214 212 213 212 212 210 207 204 201 199 197 196 195 194 193 192 190 189 187 184 184 187
216 217 218 219 218 218 220 223 222 222 223 226 228 227 228 230 229 225 219 214 211 211 212 213 212 209 206 204 202 200 199 198 197 197 196 193 190 187 186 186 187 187
215 216 216 217 216 215 218 221 222 221 222 225 227 227 227 227 226 223 219 214 211 211 213 212 211 210 209 209 208 205 203 201 199 199 198 196 192 188 187 188 188 188
213 214 215 215 215 215 217 219 220 220 221 222 224 225 225 224 223 222 220 216 213 213 214 213 212 212 211 209 208 208 207 204 202 200 198 196 194 192 190 189 188 191
213 214 214 213 214 215 216 217 218 217 218 219 221 223 223 221 220 221 218 215 213 214 216 216 215 213 212 210 208 208 209 208 205 202 199 198 198 197 195 192 192 196
212 212 210 210 212 213 214 214 213 213 215 217 219 221 221 218 216 217 215 213 213 214 216 217 216 214 212 211 209 209 209 209 208 206 204 204 201 198 196 196 197 201
208 207 206 207 209 210 209 209 209 210 213 216 217 216 214 213 214 214 213 213 214 215 217 218 217 215 212 211 210 210 211 210 209 209 209 209 205 201 200 201 204 206
203 203 202 203 204 205 205 206 208 209 210 213 213 213 212 214 215 215 214 214 216 217 218 219 219 217 214 212 212 212 211 209 209 210 209 208 206 204 205 207 209 211
200 200 198 198 199 200 201 203 205 205 207 209 209 210 212 213 214 215 215 215 216 217 217 218 219 217 215 213 212 211 210 208 208 209 208 207 206 205 206 209 212 220
200 197 194 194 195 195 197 200 201 202 205 206 205 205 207 209 212 214 215 216 216 217 217 218 219 217 215 213 211 210 210 209 209 208 207 206 206 205 206 211 220 236
198 196 193 191 192 193 195 197 198 200 203 204 204 204 204 207 210 212 214 217 219 220 220 218 217 215 213 213 211 210 212 212 210 208 207 207 206 205 209 219 234 249
194 193 191 190 190 192 194 195 196 199 202 203 203 204 204 206 208 210 213 216 219 222 221 219 218 216 213 212 209 209 211 212 211 210 210 209 208 209 216 229 244 255
191 191 190 190 190 190 191 192 193 196 198 197 198 200 202 203 205 207 210 213 216 219 220 221 221 219 215 213 211 211 213 213 212 212 211 210 211 216 225 238 251 260